Weather History for KRWL - January, 2013

Change the Weather History Date:

Sunday, January 13, 2013

  Actual Average Record
Temperature  
Mean Temperature -7 °F 22 °F  
Max Temperature 4 °F 31 °F 50 °F (1996)
Min Temperature -18 °F 12 °F -19 °F (2007)
Degree Days  
Heating Degree Days 72 43  
Month to date heating degree days 674 559  
Since 1 July heating degree days 3625 4013  
Cooling Degree Days 0 0  
Month to date cooling degree days 0 0  
Year to date cooling degree days 0 0  
Moisture  
Dew Point -11 °F    
Average Humidity 80    
Maximum Humidity 92    
Minimum Humidity 68    
Precipitation  
Precipitation T in 0.01 in 0.16 in (1980)
Month to date precipitation T 0.16  
Year to date precipitation T 0.16  
Sea Level Pressure  
Sea Level Pressure 30.20 in    
Wind  
Wind Speed 3 mph (West)    
Max Wind Speed 13 mph    
Max Gust Speed 15 mph    
Visibility 9 miles    
Events Snow    
T = Trace of Precipitation, MM = Missing Value Source: NWS Daily Summary

Daily Weather History Graph

Daily Weather History Graph

Search for Another Location

Airport or City:

Trip Planner

Search our weather history database for the weather conditions in past years. The results will help you decide how hot, cold, wet, or windy it might be!

Date:

Astronomy

Jan. 13, 2013 Rise Set
Actual Time 7:34 AM MST 5:01 PM MST
Civil Twilight 7:03 AM MST 5:32 PM MST
Nautical Twilight 6:29 AM MST 6:06 PM MST
Astronomical Twilight 5:55 AM MST 6:39 PM MST
Moon 8:32 AM MST (1/13) 7:46 PM MST (1/13)
Length of Visible Light 10h 28m
Length of Day
9h 26m
Waxing Crescent, 5% of the Moon is Illuminated
Jan 13
Waxing Crescent
Jan 18
First Quarter
Jan 26
Full
Feb 3
Last Quarter
Feb 10
New

Hourly Weather History & Observations

Time (MST) Temp. Windchill Dew Point Humidity Pressure Visibility Wind Dir Wind Speed Gust Speed Precip Events Conditions
12:53 AM -4.0 °F - -8.0 °F 83% 30.19 in 3.0 mi Calm Calm - 0.00 in Snow Light Snow
1:53 AM -4.0 °F - -9.0 °F 79% 30.19 in 3.0 mi Calm Calm - 0.00 in Snow Light Snow
2:03 AM -2.2 °F - -7.6 °F 78% 29.88 in 4.0 mi Calm Calm - 0.00 in Snow Light Snow
2:20 AM -5.8 °F - -9.4 °F 84% 29.88 in 10.0 mi Calm Calm - 0.00 in   Overcast
2:53 AM -6.0 °F - -9.9 °F 83% 30.21 in 7.0 mi Calm Calm - 0.00 in Snow Light Snow
3:53 AM -5.1 °F - -9.0 °F 83% 30.20 in 5.0 mi Calm Calm - 0.00 in Snow Light Snow
4:50 AM -7.6 °F -16.5 °F -11.2 °F 84% 29.86 in 10.0 mi SW 3.5 mph - 0.00 in   Mostly Cloudy
4:53 AM -8.0 °F -16.9 °F -11.9 °F 83% 30.22 in 10.0 mi SW 3.5 mph - 0.00 in   Scattered Clouds
5:53 AM -14.1 °F - -18.0 °F 82% 30.29 in 10.0 mi Calm Calm - N/A   Clear
6:53 AM -17.0 °F - -20.9 °F 82% 30.32 in 10.0 mi Calm Calm - N/A   Clear
7:53 AM -13.0 °F - -18.9 °F 75% 30.34 in 10.0 mi Calm Calm - N/A   Overcast
8:53 AM -11.0 °F - -16.1 °F 78% 30.33 in 10.0 mi Calm Calm - N/A   Clear
9:53 AM -6.0 °F - -9.0 °F 87% 30.31 in 10.0 mi Calm Calm - N/A   Mostly Cloudy
10:53 AM -2.0 °F - -6.0 °F 83% 30.28 in 10.0 mi Calm Calm - N/A   Overcast
11:53 AM 1.9 °F -10.6 °F -5.1 °F 72% 30.25 in 9.0 mi SW 6.9 mph - 0.00 in   Overcast
12:53 PM 1.9 °F -10.6 °F -5.1 °F 72% 29.77 in 10.0 mi WSW 6.9 mph - N/A   Overcast
1:53 PM 1.9 °F -11.8 °F -6.0 °F 69% 29.77 in 10.0 mi WNW 8.1 mph - N/A   Overcast
2:53 PM 3.9 °F -9.4 °F -6.0 °F 64% 29.79 in 10.0 mi WNW 8.1 mph - N/A   Clear
3:53 PM 1.9 °F -10.6 °F -7.1 °F 66% 30.29 in 10.0 mi NW 6.9 mph - N/A   Overcast
4:53 PM 1.0 °F -8.7 °F -8.0 °F 66% 30.30 in 10.0 mi WNW 4.6 mph - N/A   Overcast
5:53 PM -2.9 °F -13.3 °F -9.0 °F 75% 30.37 in 10.0 mi NW 4.6 mph - N/A   Overcast
6:53 PM -7.1 °F -19.9 °F -11.9 °F 79% 30.41 in 10.0 mi NW 5.8 mph - N/A   Clear
7:53 PM -9.9 °F - -15.0 °F 78% 30.41 in 10.0 mi Calm Calm - N/A   Clear
8:53 PM -9.0 °F -29.3 °F -13.0 °F 83% 30.39 in 10.0 mi WSW 12.7 mph - N/A   Clear
9:53 PM -9.0 °F -25.2 °F -11.9 °F 87% 30.37 in 10.0 mi SW 8.1 mph - N/A   Clear
10:53 PM -9.9 °F - -14.1 °F 82% 30.36 in 10.0 mi Calm Calm - N/A   Clear
11:53 PM -11.9 °F - -16.1 °F 82% 30.35 in 10.0 mi Calm Calm - N/A   Clear